<?xml version='1.0' encoding='UTF-8'?>
<gpx xmlns="http://www.topografix.com/GPX/1/1" creator="www.balnam.be" version="1.1" xmlns:xsi="http://www.w3.org/2001/XMLSchema-instance" xsi:schemaLocation="http://www.topografix.com/GPX/1/1 http://www.topografix.com/GPX/1/1/gpx.xsd">
<trk>
<name>lcltw1</name>
<cmt>q</cmt>
<desc>Terwagne Chemin n°1 </desc>
<link href="https://chemins.be/terwagne/chemin/1"/><trkseg>
<trkpt lat="50.443900" lon="5.347474"><time>2026-05-02T16:23:56Z</time></trkpt>
<trkpt lat="50.444426" lon="5.346943"><time>2026-05-02T16:33:56Z</time></trkpt>
<trkpt lat="50.446061" lon="5.346639"><time>2026-05-02T16:43:56Z</time></trkpt>
<trkpt lat="50.446734" lon="5.347353"><time>2026-05-02T16:53:56Z</time></trkpt>
<trkpt lat="50.447403" lon="5.347514"><time>2026-05-02T17:03:56Z</time></trkpt>
</trkseg>
</trk>
<trk>
<name>lcltw10</name>
<cmt>r</cmt>
<desc>Terwagne Chemin n°10 </desc>
<link href="https://chemins.be/terwagne/chemin/10"/><trkseg>
<trkpt lat="50.447180" lon="5.363153"><time>2026-05-02T16:23:56Z</time></trkpt>
<trkpt lat="50.449747" lon="5.365727"><time>2026-05-02T16:33:56Z</time></trkpt>
<trkpt lat="50.451086" lon="5.367873"><time>2026-05-02T16:43:56Z</time></trkpt>
<trkpt lat="50.453685" lon="5.369204"><time>2026-05-02T16:53:56Z</time></trkpt>
<trkpt lat="50.455324" lon="5.367487"><time>2026-05-02T17:03:56Z</time></trkpt>
</trkseg>
</trk>
<trk>
<name>lcltw11</name>
<cmt>s</cmt>
<desc>Terwagne Chemin n°11 </desc>
<link href="https://chemins.be/terwagne/chemin/11"/><trkseg>
<trkpt lat="50.440662" lon="5.359637"><time>2026-05-02T16:23:56Z</time></trkpt>
<trkpt lat="50.442641" lon="5.356719"><time>2026-05-02T16:33:56Z</time></trkpt>
<trkpt lat="50.445177" lon="5.355569"><time>2026-05-02T16:43:56Z</time></trkpt>
</trkseg>
</trk>
<trk>
<name>lcltw12</name>
<cmt>d</cmt>
<desc>Terwagne Chemin n°12 </desc>
<link href="https://chemins.be/terwagne/chemin/12"/><trkseg>
<trkpt lat="50.447804" lon="5.368145"><time>2026-05-02T16:23:56Z</time></trkpt>
<trkpt lat="50.448128" lon="5.367990"><time>2026-05-02T16:33:56Z</time></trkpt>
<trkpt lat="50.448693" lon="5.367010"><time>2026-05-02T16:43:56Z</time></trkpt>
<trkpt lat="50.448779" lon="5.366633"><time>2026-05-02T16:53:56Z</time></trkpt>
</trkseg></trk>
<trk>
<name>lcltw12</name>
<cmt>q</cmt>
<desc>Terwagne Chemin n°12 </desc>
<link href="https://chemins.be/terwagne/chemin/12"/><trkseg>
<trkpt lat="50.448779" lon="5.366633"><time>2026-05-02T16:53:56Z</time></trkpt>
<trkpt lat="50.448383" lon="5.365397"><time>2026-05-02T17:03:56Z</time></trkpt>
<trkpt lat="50.447766" lon="5.363734"><time>2026-05-02T17:13:56Z</time></trkpt>
</trkseg>
</trk>
<trk>
<name>lcltw14</name>
<cmt>s</cmt>
<desc>Terwagne Chemin n°14 </desc>
<link href="https://chemins.be/terwagne/chemin/14"/><trkseg>
<trkpt lat="50.448698" lon="5.357514"><time>2026-05-02T16:23:56Z</time></trkpt>
<trkpt lat="50.448373" lon="5.356779"><time>2026-05-02T16:33:56Z</time></trkpt>
</trkseg>
</trk>
<trk>
<name>lcltw16</name>
<cmt>s</cmt>
<desc>Terwagne Chemin n°16 </desc>
<link href="https://chemins.be/terwagne/chemin/16"/><trkseg>
<trkpt lat="50.452057" lon="5.354830"><time>2026-05-02T16:23:56Z</time></trkpt>
<trkpt lat="50.455175" lon="5.354479"><time>2026-05-02T16:33:56Z</time></trkpt>
<trkpt lat="50.459211" lon="5.356157"><time>2026-05-02T16:43:56Z</time></trkpt>
</trkseg>
</trk>
<trk>
<name>lcltw2</name>
<cmt>v</cmt>
<desc>Terwagne Chemin n°2 </desc>
<link href="https://chemins.be/terwagne/chemin/2"/><trkseg>
<trkpt lat="50.453349" lon="5.338782"><time>2026-05-02T16:23:56Z</time></trkpt>
<trkpt lat="50.454000" lon="5.338517"><time>2026-05-02T16:33:56Z</time></trkpt>
</trkseg></trk>
<trk>
<name>lcltw2</name>
<cmt>q</cmt>
<desc>Terwagne Chemin n°2 </desc>
<link href="https://chemins.be/terwagne/chemin/2"/><trkseg>
<trkpt lat="50.454000" lon="5.338517"><time>2026-05-02T16:33:56Z</time></trkpt>
<trkpt lat="50.456552" lon="5.337678"><time>2026-05-02T16:43:56Z</time></trkpt>
</trkseg>
</trk>
<trk>
<name>lcltw21</name>
<cmt>q</cmt>
<desc>Terwagne Chemin n°21 </desc>
<link href="https://chemins.be/terwagne/chemin/21"/><trkseg>
<trkpt lat="50.437923" lon="5.343481"><time>2026-05-02T16:23:56Z</time></trkpt>
<trkpt lat="50.437204" lon="5.340366"><time>2026-05-02T16:33:56Z</time></trkpt>
</trkseg>
</trk>
<trk>
<name>lcltw22</name>
<cmt>q</cmt>
<desc>Terwagne Chemin n°22 </desc>
<link href="https://chemins.be/terwagne/chemin/22"/><trkseg>
<trkpt lat="50.444329" lon="5.347045"><time>2026-05-02T16:23:56Z</time></trkpt>
<trkpt lat="50.444687" lon="5.347860"><time>2026-05-02T16:33:56Z</time></trkpt>
</trkseg>
</trk>
<trk>
<name>lcltw23</name>
<cmt>q</cmt>
<desc>Terwagne Chemin n°23 Rue du Puits</desc>
<link href="https://chemins.be/terwagne/chemin/23"/><trkseg>
<trkpt lat="50.443844" lon="5.350033"><time>2026-05-02T16:23:56Z</time></trkpt>
<trkpt lat="50.443360" lon="5.350595"><time>2026-05-02T16:33:56Z</time></trkpt>
</trkseg></trk>
<trk>
<name>lcltw23</name>
<cmt>r</cmt>
<desc>Terwagne Chemin n°23 Rue du Puits</desc>
<link href="https://chemins.be/terwagne/chemin/23"/><trkseg>
<trkpt lat="50.443360" lon="5.350595"><time>2026-05-02T16:33:56Z</time></trkpt>
<trkpt lat="50.443696" lon="5.351458"><time>2026-05-02T16:43:56Z</time></trkpt>
<trkpt lat="50.443945" lon="5.351500"><time>2026-05-02T16:53:56Z</time></trkpt>
</trkseg>
</trk>
<trk>
<name>lcltw24</name>
<cmt>v</cmt>
<desc>Terwagne Sentier n°24 </desc>
<link href="https://chemins.be/terwagne/sentier/24"/><trkseg>
<trkpt lat="50.443541" lon="5.348800"><time>2026-05-02T16:23:56Z</time></trkpt>
<trkpt lat="50.443135" lon="5.347961"><time>2026-05-02T16:33:56Z</time></trkpt>
</trkseg></trk>
<trk>
<name>lcltw24</name>
<cmt>q</cmt>
<desc>Terwagne Sentier n°24 </desc>
<link href="https://chemins.be/terwagne/sentier/24"/><trkseg>
<trkpt lat="50.443135" lon="5.347961"><time>2026-05-02T16:33:56Z</time></trkpt>
<trkpt lat="50.442951" lon="5.347338"><time>2026-05-02T16:43:56Z</time></trkpt>
<trkpt lat="50.442897" lon="5.347365"><time>2026-05-02T16:53:56Z</time></trkpt>
<trkpt lat="50.442033" lon="5.345390"><time>2026-05-02T17:03:56Z</time></trkpt>
</trkseg>
</trk>
<trk>
<name>lcltw25</name>
<cmt>q</cmt>
<desc>Terwagne Sentier n°25 </desc>
<link href="https://chemins.be/terwagne/sentier/25"/><trkseg>
<trkpt lat="50.442185" lon="5.345716"><time>2026-05-02T16:23:56Z</time></trkpt>
<trkpt lat="50.441294" lon="5.345664"><time>2026-05-02T16:33:56Z</time></trkpt>
<trkpt lat="50.441113" lon="5.344042"><time>2026-05-02T16:43:56Z</time></trkpt>
<trkpt lat="50.440485" lon="5.343166"><time>2026-05-02T16:53:56Z</time></trkpt>
<trkpt lat="50.439862" lon="5.340978"><time>2026-05-02T17:03:56Z</time></trkpt>
<trkpt lat="50.439673" lon="5.340647"><time>2026-05-02T17:13:56Z</time></trkpt>
</trkseg>
</trk>
<trk>
<name>lcltw26</name>
<cmt>q</cmt>
<desc>Terwagne Sentier n°26 </desc>
<link href="https://chemins.be/terwagne/sentier/26"/><trkseg>
<trkpt lat="50.439706" lon="5.343001"><time>2026-05-02T16:23:56Z</time></trkpt>
<trkpt lat="50.439369" lon="5.344124"><time>2026-05-02T16:33:56Z</time></trkpt>
<trkpt lat="50.438503" lon="5.345362"><time>2026-05-02T16:43:56Z</time></trkpt>
<trkpt lat="50.437118" lon="5.346084"><time>2026-05-02T16:53:56Z</time></trkpt>
<trkpt lat="50.436653" lon="5.346692"><time>2026-05-02T17:03:56Z</time></trkpt>
</trkseg>
</trk>
<trk>
<name>lcltw27</name>
<cmt>q</cmt>
<desc>Terwagne Sentier n°27 </desc>
<link href="https://chemins.be/terwagne/sentier/27"/><trkseg>
<trkpt lat="50.444418" lon="5.346871"><time>2026-05-02T16:23:56Z</time></trkpt>
<trkpt lat="50.445422" lon="5.341249"><time>2026-05-02T16:33:56Z</time></trkpt>
</trkseg>
</trk>
<trk>
<name>lcltw28</name>
<cmt>q</cmt>
<desc>Terwagne Sentier n°28 </desc>
<link href="https://chemins.be/terwagne/sentier/28"/><trkseg>
<trkpt lat="50.446102" lon="5.360030"><time>2026-05-02T16:23:56Z</time></trkpt>
<trkpt lat="50.446115" lon="5.363710"><time>2026-05-02T16:33:56Z</time></trkpt>
</trkseg>
</trk>
<trk>
<name>lcltw29</name>
<cmt>r</cmt>
<desc>Terwagne Sentier n°29 </desc>
<link href="https://chemins.be/terwagne/sentier/29"/><trkseg>
<trkpt lat="50.447879" lon="5.369330"><time>2026-05-02T16:23:56Z</time></trkpt>
<trkpt lat="50.447738" lon="5.367492"><time>2026-05-02T16:33:56Z</time></trkpt>
</trkseg></trk>
<trk>
<name>lcltw29</name>
<cmt>q</cmt>
<desc>Terwagne Sentier n°29 </desc>
<link href="https://chemins.be/terwagne/sentier/29"/><trkseg>
<trkpt lat="50.447738" lon="5.367492"><time>2026-05-02T16:33:56Z</time></trkpt>
<trkpt lat="50.447783" lon="5.363772"><time>2026-05-02T16:43:56Z</time></trkpt>
</trkseg>
</trk>
<trk>
<name>lcltw30</name>
<cmt>q</cmt>
<desc>Terwagne Sentier n°30 </desc>
<link href="https://chemins.be/terwagne/sentier/30"/><trkseg>
<trkpt lat="50.444399" lon="5.348228"><time>2026-05-02T16:23:56Z</time></trkpt>
<trkpt lat="50.444726" lon="5.347863"><time>2026-05-02T16:33:56Z</time></trkpt>
<trkpt lat="50.446700" lon="5.347407"><time>2026-05-02T16:43:56Z</time></trkpt>
</trkseg>
</trk>
<trk>
<name>lcltw31</name>
<cmt>q</cmt>
<desc>Terwagne Sentier n°31 </desc>
<link href="https://chemins.be/terwagne/sentier/31"/><trkseg>
<trkpt lat="50.451199" lon="5.339339"><time>2026-05-02T16:23:56Z</time></trkpt>
<trkpt lat="50.454715" lon="5.332738"><time>2026-05-02T16:33:56Z</time></trkpt>
</trkseg>
</trk>
<trk>
<name>lcltw4</name>
<cmt>v</cmt>
<desc>Terwagne Chemin n°4 </desc>
<link href="https://chemins.be/terwagne/chemin/4"/><trkseg>
<trkpt lat="50.442769" lon="5.331738"><time>2026-05-02T16:23:56Z</time></trkpt>
<trkpt lat="50.442529" lon="5.329946"><time>2026-05-02T16:33:56Z</time></trkpt>
<trkpt lat="50.441826" lon="5.328830"><time>2026-05-02T16:43:56Z</time></trkpt>
<trkpt lat="50.441843" lon="5.328042"><time>2026-05-02T16:53:56Z</time></trkpt>
</trkseg>
</trk>
<trk>
<name>lcltw5</name>
<cmt>v</cmt>
<desc>Terwagne Chemin n°5 </desc>
<link href="https://chemins.be/terwagne/chemin/5"/><trkseg>
<trkpt lat="50.441783" lon="5.340827"><time>2026-05-02T16:23:56Z</time></trkpt>
<trkpt lat="50.440480" lon="5.337315"><time>2026-05-02T16:33:56Z</time></trkpt>
<trkpt lat="50.439947" lon="5.335756"><time>2026-05-02T16:43:56Z</time></trkpt>
</trkseg>
</trk>
<trk>
<name>lcltw7</name>
<cmt>v</cmt>
<desc>Terwagne Chemin n°7 </desc>
<link href="https://chemins.be/terwagne/chemin/7"/><trkseg>
<trkpt lat="50.437001" lon="5.338020"><time>2026-05-02T16:23:56Z</time></trkpt>
<trkpt lat="50.436782" lon="5.338157"><time>2026-05-02T16:33:56Z</time></trkpt>
<trkpt lat="50.435191" lon="5.336543"><time>2026-05-02T16:43:56Z</time></trkpt>
<trkpt lat="50.433037" lon="5.334483"><time>2026-05-02T16:53:56Z</time></trkpt>
</trkseg>
</trk>
<trk>
<name>lcltw8</name>
<cmt>s</cmt>
<desc>Terwagne Chemin n°8 </desc>
<link href="https://chemins.be/terwagne/chemin/8"/><trkseg>
<trkpt lat="50.437614" lon="5.343721"><time>2026-05-02T16:23:56Z</time></trkpt>
<trkpt lat="50.437562" lon="5.344276"><time>2026-05-02T16:33:56Z</time></trkpt>
<trkpt lat="50.436687" lon="5.346639"><time>2026-05-02T16:43:56Z</time></trkpt>
</trkseg>
</trk>
<trk>
<name>lcltw9</name>
<cmt>d</cmt>
<desc>Terwagne Chemin n°9 </desc>
<link href="https://chemins.be/terwagne/chemin/9"/><trkseg>
<trkpt lat="50.442783" lon="5.351610"><time>2026-05-02T16:23:56Z</time></trkpt>
<trkpt lat="50.442436" lon="5.352187"><time>2026-05-02T16:33:56Z</time></trkpt>
<trkpt lat="50.441655" lon="5.352640"><time>2026-05-02T16:43:56Z</time></trkpt>
</trkseg></trk>
<trk>
<name>lcltw9</name>
<cmt>s</cmt>
<desc>Terwagne Chemin n°9 </desc>
<link href="https://chemins.be/terwagne/chemin/9"/><trkseg>
<trkpt lat="50.441655" lon="5.352640"><time>2026-05-02T16:43:56Z</time></trkpt>
<trkpt lat="50.441163" lon="5.352925"><time>2026-05-02T16:53:56Z</time></trkpt>
</trkseg></trk>
<trk>
<name>lcltw9</name>
<cmt>v</cmt>
<desc>Terwagne Chemin n°9 </desc>
<link href="https://chemins.be/terwagne/chemin/9"/><trkseg>
<trkpt lat="50.441163" lon="5.352925"><time>2026-05-02T16:53:56Z</time></trkpt>
<trkpt lat="50.440222" lon="5.353689"><time>2026-05-02T17:03:56Z</time></trkpt>
<trkpt lat="50.438834" lon="5.355251"><time>2026-05-02T17:13:56Z</time></trkpt>
</trkseg>
</trk>
<trk>
<name>lcltwi1</name>
<cmt>r</cmt>
<desc>Terwagne Chemin n°i1 </desc>
<link href="https://chemins.be/terwagne/chemin/i1"/><trkseg>
<trkpt lat="50.459113" lon="5.355445"><time>2026-05-02T16:23:56Z</time></trkpt>
<trkpt lat="50.456490" lon="5.358335"><time>2026-05-02T16:33:56Z</time></trkpt>
<trkpt lat="50.454304" lon="5.356647"><time>2026-05-02T16:43:56Z</time></trkpt>
<trkpt lat="50.454131" lon="5.356647"><time>2026-05-02T16:53:56Z</time></trkpt>
</trkseg>
</trk>
<trk>
<name>lcltwi2</name>
<cmt>v</cmt>
<desc>Terwagne Chemin n°i2 </desc>
<link href="https://chemins.be/terwagne/chemin/i2"/><trkseg>
<trkpt lat="50.439954" lon="5.335734"><time>2026-05-02T16:23:56Z</time></trkpt>
<trkpt lat="50.439239" lon="5.333210"><time>2026-05-02T16:33:56Z</time></trkpt>
<trkpt lat="50.438747" lon="5.332444"><time>2026-05-02T16:43:56Z</time></trkpt>
</trkseg>
</trk>
<trk>
<name>lcltwi3</name>
<cmt>v</cmt>
<desc>Terwagne Chemin n°i3 </desc>
<link href="https://chemins.be/terwagne/chemin/i3"/><trkseg>
<trkpt lat="50.439900" lon="5.337960"><time>2026-05-02T16:23:56Z</time></trkpt>
<trkpt lat="50.439128" lon="5.335875"><time>2026-05-02T16:33:56Z</time></trkpt>
</trkseg>
</trk>
</gpx>